Home   Weather   Chorzów   Past weeks

Flag for Poland Past Weather in Chorzów, Poland — Yesterday and Last 2 Weeks

Now
59 °F

Clear.


Feels Like: 58 °F
Forecast: 52 / 70 °F
Wind: 7 mph from Southwest

Location: Katowice Airport

Current Time: Sep 29, 2016 at 12:21:33 AM

Latest Report: Sep 29, 2016 at 12:00 AM


Visibility: 10 mi

Pressure: 30.18 "Hg

Humidity: 77%

Dew Point: 52 °F

Location of ChorzówLocation

Past Weather in Chorzów — Graph

°F

Chorzów Temperature Yesterday

Maximum temperature yesterday: 66 °F (at 1:30 PM)
Minimum temperature yesterday: 37 °F (at 3:00 AM)
Average temperature yesterday: 54 °F

High & Low Weather Summary for the Past Weeks

 TemperatureHumidityPressure
High81 °F (Sep 16, 1:30 PM)100% (Sep 14, 3:00 AM)30.36 "Hg (Sep 14, 3:00 AM)
Low32 °F (Sep 22, 6:00 AM)31% (Sep 14, 2:30 PM)29.83 "Hg (Sep 17, 5:00 AM)
Average54 °F82%30.10 "Hg
* Reported Sep 13 11:00 PM — Sep 28 11:00 PM, Chorzów, Weather by CustomWeather, © 2016

Note: Actual official high and low records may vary slightly from our data, if they occured in-between our weather recording intervals... More about our weather records

Advertising

Chorzów Weather History for the Previous 24 Hours

Scroll right to see more
 ConditionsComfort  
Time TempWeatherWind HumidityBarometerVisibility
11:00 PM
Wed, Sep 28
61 °FClear.12 mph72%30.18 "Hg10 mi
10:30 PM61 °FClear.13 mph72%30.18 "Hg10 mi
10:00 PM61 °FClear.13 mph72%30.15 "Hg10 mi
9:30 PM61 °FClear.12 mph72%30.15 "Hg10 mi
9:00 PM61 °FClear.12 mph72%30.18 "Hg10 mi
8:30 PM63 °FClear.13 mph68%30.18 "Hg10 mi
8:00 PM63 °FClear.12 mph68%30.18 "Hg10 mi
7:30 PM63 °FClear.10 mph68%30.18 "Hg10 mi
7:00 PM63 °FClear.13 mph68%30.18 "Hg10 mi
6:30 PM64 °FClear.15 mph64%30.18 "Hg10 mi
6:00 PM64 °FSunny.16 mph64%30.18 "Hg10 mi
5:30 PM64 °FSunny.12 mph64%30.18 "Hg10 mi
5:00 PM66 °FSunny.14 mph60%30.18 "Hg10 mi
4:30 PM66 °FSunny.15 mph60%30.18 "Hg10 mi
4:00 PM66 °FSunny.10 mph60%30.18 "Hg10 mi
3:30 PM66 °FPassing clouds.12 mph52%30.21 "HgN/A
3:00 PM66 °FSunny.12 mph56%30.21 "Hg10 mi
2:30 PM64 °FSunny.13 mph60%30.24 "Hg10 mi
2:00 PM64 °FSunny.14 mph60%30.24 "Hg10 mi
1:30 PM66 °FSunny.15 mph56%30.24 "Hg10 mi
1:00 PM64 °FSunny.15 mph56%30.24 "Hg10 mi
12:30 PM64 °FSunny.14 mph56%30.27 "Hg10 mi
12:00 PM63 °FPassing clouds.12 mph64%30.27 "HgN/A
11:30 AM59 °FClear.12 mph72%30.27 "Hg5 mi
11:00 AM59 °FClear.9 mph72%30.30 "Hg5 mi
10:30 AM57 °FClear.9 mph77%30.27 "Hg4 mi
10:00 AM55 °FClear.9 mph77%30.30 "Hg4 mi
9:30 AM52 °FClear.8 mph88%30.30 "Hg4 mi
9:00 AM50 °FFog.5 mph88%30.27 "Hg3 mi
8:30 AM46 °FFog.1 mph93%30.30 "Hg1 mi
8:00 AM45 °FQuite cool.2 mph100%30.30 "Hg1 mi
7:30 AM43 °FQuite cool.5 mph100%30.30 "Hg1 mi
7:00 AM41 °FQuite cool.5 mph100%30.30 "Hg1 mi
6:30 AM39 °FChilly.5 mph100%30.30 "Hg1 mi
6:00 AM39 °FChilly.6 mph100%30.30 "Hg1 mi
5:30 AM41 °FQuite cool.5 mph100%30.30 "Hg1 mi
5:00 AM41 °FFog.3 mph100%30.30 "Hg1 mi
4:30 AM39 °FChilly.6 mph93%30.33 "Hg1 mi
4:00 AM37 °FChilly.5 mph100%30.33 "Hg1 mi
3:30 AM37 °FChilly.5 mph100%30.33 "Hg2 mi
3:00 AM37 °FChilly.5 mph93%30.33 "Hg2 mi
2:30 AM39 °FChilly.6 mph93%30.33 "Hg1 mi
2:00 AM39 °FChilly.3 mph100%30.33 "Hg2 mi
1:30 AM39 °FChilly.2 mph100%30.33 "Hg1 mi
1:00 AM39 °FChilly.2 mph100%30.33 "Hg2 mi
12:30 AM39 °FChilly.1 mph100%30.33 "Hg2 mi
12:00 AM39 °FFog.2 mph100%30.36 "Hg2 mi
Weather by CustomWeather, © 2016

See weather overviewHow to use our weather pages